Weather History for Gastonia, NC

Change the Weather History Date:

Saturday, February 16, 2013

  Actual Average (KCLT) Record (KCLT)
Temperature  
Mean Temperature 36 °F 44 °F  
Max Temperature 46 °F 55 °F 76 °F (1976)
Min Temperature 27 °F 33 °F 11 °F (1905)
Degree Days  
Heating Degree Days 28 21  
Month to date heating degree days 358  
Since 1 July heating degree days 2465  
Cooling Degree Days 0 0  
Month to date cooling degree days 0  
Year to date cooling degree days 0  
Moisture  
Dew Point 31 °F    
Average Humidity 86    
Maximum Humidity 100    
Minimum Humidity 56    
Precipitation  
Precipitation 0.26 in 0.12 in 2.28 in (1942)
Month to date precipitation 1.78  
Year to date precipitation 5.19  
Snow  
Snow 0.00 in 0.00 in 8.70 in (1969)
Month to date snowfall 0.7  
Since 1 July snowfall 3.2  
Snow Depth -    
Sea Level Pressure  
Sea Level Pressure 29.92 in    
Wind  
Wind Speed 5 mph (NE)    
Max Wind Speed 8 mph    
Max Gust Speed 20 mph    
Visibility 6 miles    
Events Fog , Rain , Snow , Thunderstorm    
T = Trace of Precipitation, MM = Missing Value Source: NWS Daily Summary

Daily Weather History Graph

Daily Weather History Graph

Search for Another Location

Airport:

Trip Planner

Search our weather history database for the weather conditions in past years. The results will help you decide how hot, cold, wet, or windy it might be!

Date:

Astronomy

Feb. 16, 2013 Rise Set
Actual Time 7:09 AM EST 6:08 PM EST
Civil Twilight 6:43 AM EST 6:34 PM EST
Nautical Twilight 6:13 AM EST 7:03 PM EST
Astronomical Twilight 5:44 AM EST 7:33 PM EST
Moon 10:37 AM EST (2/16) No Moon Set
Length of Visible Light 11h 50m
Length of Day
10h 58m
Waxing Crescent, 39% of the Moon is Illuminated
Feb 16
Waxing Crescent
Feb 17
First Quarter
Feb 25
Full
Mar 4
Last Quarter
Mar 11
New

Hourly Weather History & Observations

Time (EST) Temp. Windchill Dew Point Humidity Pressure Visibility Wind Dir Wind Speed Gust Speed Precip Events Conditions
12:54 AM 46.9 °F - 32.0 °F 56% 29.96 in 10.0 mi Variable 4.6 mph - N/A   Overcast
1:54 AM 43.0 °F 39.5 °F 30.9 °F 62% 29.95 in 10.0 mi Variable 5.8 mph - N/A   Scattered Clouds
2:54 AM 41.0 °F 36.4 °F 30.0 °F 65% 29.94 in 10.0 mi NE 6.9 mph - N/A   Partly Cloudy
3:54 AM 42.1 °F 38.4 °F 28.9 °F 60% 29.95 in 10.0 mi NE 5.8 mph - N/A   Overcast
4:54 AM 41.0 °F 37.1 °F 30.9 °F 67% 29.95 in 10.0 mi ENE 5.8 mph - 0.00 in   Overcast
6:40 AM 37.4 °F 32.1 °F 30.2 °F 75% 29.95 in 10.0 mi North 6.9 mph - 0.00 in Rain Light Rain
6:54 AM 37.9 °F 35.5 °F 32.0 °F 79% 29.96 in 10.0 mi North 3.5 mph - 0.00 in Rain Light Rain
7:26 AM 37.4 °F 32.1 °F 32.0 °F 81% 29.96 in 6.0 mi North 6.9 mph - 0.00 in Rain Light Rain
7:54 AM 36.0 °F 29.6 °F 33.1 °F 89% 29.96 in 5.0 mi NE 8.1 mph - 0.01 in Rain Light Rain
8:01 AM 35.6 °F 29.2 °F 33.8 °F 93% 29.95 in 7.0 mi NNE 8.1 mph - 0.00 in Rain Light Rain
8:54 AM 37.0 °F 34.5 °F 34.0 °F 89% 29.97 in 9.0 mi NE 3.5 mph - 0.00 in   Overcast
9:11 AM 37.4 °F 34.9 °F 33.8 °F 87% 29.95 in 9.0 mi ENE 3.5 mph - N/A   Overcast
9:26 AM 35.6 °F 29.9 °F 33.8 °F 93% 29.95 in 8.0 mi East 6.9 mph - 0.00 in Rain Light Rain
9:44 AM 35.6 °F 30.7 °F 33.8 °F 93% 29.95 in 2.5 mi ENE 5.8 mph - 0.01 in Snow Light Snow
9:52 AM 35.6 °F 31.7 °F 33.8 °F 93% 29.95 in 3.0 mi ENE 4.6 mph - 0.01 in Snow Light Snow
9:54 AM 36.0 °F 33.3 °F 34.0 °F 93% 29.96 in 4.0 mi ENE 3.5 mph - 0.01 in Snow Light Snow
10:14 AM 35.6 °F 30.7 °F 33.8 °F 93% 29.94 in 7.0 mi East 5.8 mph - 0.00 in Rain Light Rain
10:33 AM 37.4 °F 34.9 °F 35.6 °F 93% 29.94 in 7.0 mi Variable 3.5 mph - 0.00 in   Overcast
10:46 AM 35.6 °F 29.9 °F 33.8 °F 93% 29.93 in 9.0 mi East 6.9 mph - 0.00 in   Overcast
10:54 AM 36.0 °F - 34.0 °F 93% 29.94 in 9.0 mi Calm Calm - 0.00 in   Overcast
11:21 AM 37.4 °F 34.9 °F 33.8 °F 87% 29.94 in 10.0 mi East 3.5 mph - N/A   Overcast
11:54 AM 37.0 °F - 33.1 °F 86% 29.94 in 10.0 mi Calm Calm - N/A   Overcast
12:09 PM 37.4 °F 33.8 °F 33.8 °F 87% 29.91 in 10.0 mi SE 4.6 mph - N/A   Overcast
12:36 PM 37.4 °F 34.9 °F 33.8 °F 87% 29.89 in 10.0 mi Variable 3.5 mph - N/A   Overcast
12:51 PM 37.4 °F - 33.8 °F 87% 29.89 in 10.0 mi Calm Calm - N/A   Overcast
12:54 PM 37.9 °F - 33.1 °F 83% 29.91 in 10.0 mi Calm Calm - N/A   Overcast
1:07 PM 37.4 °F 33.8 °F 33.8 °F 87% 29.88 in 10.0 mi South 4.6 mph - N/A   Overcast
1:28 PM 37.4 °F - 33.8 °F 87% 29.86 in 10.0 mi Calm Calm - N/A   Overcast
1:54 PM 37.9 °F 34.4 °F 33.1 °F 83% 29.87 in 10.0 mi ESE 4.6 mph - N/A   Overcast
2:01 PM 39.2 °F 37.0 °F 33.8 °F 81% 29.85 in 10.0 mi Variable 3.5 mph - N/A   Overcast
2:54 PM 39.0 °F - 30.9 °F 73% 29.84 in 10.0 mi Calm Calm - N/A   Overcast
3:30 PM 35.6 °F 30.7 °F 30.2 °F 81% 29.83 in 1.8 mi NE 5.8 mph - 0.01 in Snow Light Snow
3:40 PM 35.6 °F - 30.2 °F 81% 29.83 in 1.0 mi Calm Calm - 0.01 in Snow Light Snow
3:49 PM 33.8 °F - 32.0 °F 93% 29.84 in 0.8 mi Calm Calm - 0.02 in Snow Light Snow
3:54 PM 33.1 °F - 32.0 °F 96% 29.86 in 0.5 mi Calm Calm - 0.03 in Fog , Snow Snow
4:07 PM 33.8 °F 28.6 °F 30.2 °F 87% 29.86 in 0.2 mi NNW 5.8 mph 17.3 mph 0.01 in Fog , Snow Heavy Snow
4:21 PM 33.8 °F 27.7 °F 32.0 °F 93% 29.86 in 0.2 mi North 6.9 mph - 0.04 in Fog , Snow Heavy Snow
4:41 PM 32.0 °F 25.6 °F 32.0 °F 100% 29.86 in 0.2 mi North 6.9 mph - 0.08 in Fog , Snow , Thunderstorm Heavy Snow
4:54 PM 32.0 °F 24.8 °F 30.9 °F 96% 29.88 in 0.2 mi North 8.1 mph - 0.09 in Fog , Snow , Thunderstorm Snow
4:59 PM 33.8 °F - 32.0 °F 93% 29.86 in 0.5 mi Calm Calm - 0.00 in Fog , Snow Snow
5:27 PM 33.8 °F 30.8 °F 32.0 °F 93% 29.87 in 0.2 mi North 3.5 mph - 0.03 in Fog , Snow Snow
5:31 PM 33.8 °F 29.6 °F 32.0 °F 93% 29.87 in 0.2 mi Variable 4.6 mph - 0.03 in Fog , Snow Snow
5:54 PM 32.0 °F 28.7 °F 32.0 °F 100% 29.91 in 0.2 mi Variable 3.5 mph - 0.06 in Fog , Snow Heavy Snow
6:01 PM 32.0 °F 28.7 °F 32.0 °F 100% 29.89 in 0.2 mi Variable 3.5 mph - 0.00 in Fog , Snow Snow
6:17 PM 32.0 °F 24.8 °F 30.2 °F 93% 29.90 in 0.5 mi North 8.1 mph 19.6 mph 0.01 in Fog , Snow Snow
6:21 PM 32.0 °F 25.6 °F 30.2 °F 93% 29.90 in 1.0 mi NNW 6.9 mph 19.6 mph 0.02 in Snow Light Snow
6:43 PM 32.0 °F - 30.2 °F 93% 29.91 in 2.0 mi Calm Calm - 0.03 in Snow Light Snow
6:52 PM 32.0 °F 26.4 °F 30.2 °F 93% 29.92 in 5.0 mi Variable 5.8 mph - 0.03 in   Overcast
6:54 PM 32.0 °F 26.4 °F 30.0 °F 92% 29.94 in 5.0 mi Variable 5.8 mph - 0.04 in   Overcast
7:02 PM 32.0 °F 27.5 °F 28.4 °F 87% 29.91 in 5.0 mi Variable 4.6 mph - 0.00 in Snow Light Snow
7:54 PM 30.0 °F - 28.9 °F 96% 29.96 in 6.0 mi Calm Calm - 0.01 in   Overcast
8:54 PM 28.9 °F 22.8 °F 21.9 °F 75% 29.97 in 8.0 mi NW 5.8 mph - 0.01 in   Partly Cloudy
9:54 PM 27.0 °F 21.6 °F 21.0 °F 78% 30.00 in 9.0 mi WNW 4.6 mph - N/A   Clear
10:54 PM 28.0 °F 22.8 °F 19.0 °F 69% 30.01 in 10.0 mi Variable 4.6 mph - N/A   Clear
11:54 PM 27.0 °F 21.6 °F 19.0 °F 72% 30.02 in 10.0 mi WNW 4.6 mph - N/A   Clear